• MPC Preparation (Info)

  • MPEC 2012-F74 : 2012 FL35

    The following Minor Planet Electronic Circular may be linked-to from your own Web pages, but must not otherwise be redistributed electronically.

    A form allowing access to any MPEC is at the bottom of this page.


    Read MPEC 2012-F73 Read MPEC 2012-F75


    M.P.E.C. 2012-F74                                Issued 2012 Mar. 25, 18:25 UT
    
         The Minor Planet Electronic Circulars contain information on unusual
             minor planets and routine data on comets.  They are published
       on behalf of Commission 20 of the International Astronomical Union by the
              Minor Planet Center, Smithsonian Astrophysical Observatory,
                              Cambridge, MA 02138, U.S.A.
    
                 Prepared using the Tamkin Foundation Computer Network
    
                                  MPC@CFA.HARVARD.EDU
                URL https://www.minorplanetcenter.net/    ISSN 1523-6714
    
                                       2012 FL35
    
    Observations:
         K12F35L* C2012 03 23.31984 14 00 02.64 -15 37 18.5          21.0 VoEF074691
         K12F35L  C2012 03 23.33762 14 00 00.79 -15 37 27.9          21.2 VoEF074691
         K12F35L  C2012 03 23.35538 13 59 58.86 -15 37 37.0          20.7 VoEF074691
         K12F35L KC2012 03 23.44951 13 59 48.80 -15 38 22.7                oEF074291
         K12F35L KC2012 03 23.45196 13 59 48.55 -15 38 24.3                oEF074291
         K12F35L KC2012 03 23.45440 13 59 48.31 -15 38 25.6                oEF074291
         K12F35L HC2012 03 24.33311 13 58 15.92 -15 45 40.7                oEF074291
         K12F35L HC2012 03 24.33742 13 58 15.46 -15 45 43.2                oEF074291
         K12F35L KC2012 03 25.30713 13 56 26.77 -15 53 46.3          20.3 RoEF074291
         K12F35L KC2012 03 25.31092 13 56 26.29 -15 53 48.1          20.2 RoEF074291
         K12F35L KC2012 03 25.31470 13 56 25.84 -15 53 50.1          20.1 RoEF074291
    
    Observer details:
    291 LPL/Spacewatch II.  Observer T. H. Bressi.  1.8-m f/2.7 reflector + CCD.
    691 Steward Observatory, Kitt Peak.  Observer T. H. Bressi.  0.9-m f/3
        reflector + CCD.
    
    Orbital elements:
    2012 FL35                                                Earth MOID = 0.1589 AU
    Epoch 2012 Mar. 14.0 TT = JDT 2456000.5                 MPC
    M 298.39322              (2000.0)            P               Q
    n   0.54696512     Peri.  327.67521     +0.92843777     +0.36622099
    a   1.4807996      Node    11.36746     -0.23620557     +0.71147270
    e   0.7421800      Incl.   18.43649     -0.28672327     +0.59974060
    P   1.80           H   19.6           G   0.15           U   9
    Residuals in seconds of arc
    120323 691  0.2-  0.4+    120323 291  0.0   0.1-    120325 291  0.2+  0.0
    120323 691  0.3+  0.1-    120323 291  0.3+  0.2-    120325 291  0.1-  0.1+
    120323 691  0.2-  0.3-    120324 291  0.2-  0.1+    120325 291  0.1-  0.0
    120323 291  0.2-  0.3+    120324 291  0.2+  0.2-
    
    Ephemeris:
    2012 FL35                a,e,i = 1.48, 0.74, 18                  q = 0.3818
    Date    TT    R. A. (2000) Decl.     Delta      r     Elong.  Phase     V
    2012 02 24    14 16 38.5 -12 06 12   1.1984  1.8845   118.6    27.4    22.6
    ...
    2012 03 10    14 14 19.3 -13 53 08   0.9249  1.7633   133.6    24.1    21.8
    ...
    2012 03 18    14 07 35.7 -14 54 18   0.7901  1.6932   142.8    20.8    21.3
    ...
    2012 03 24    13 58 51.6 -15 42 46   0.6958  1.6380   150.3    17.6    20.8
    2012 03 25    13 57 01.7 -15 51 03   0.6807  1.6286   151.6    16.9    20.7
    2012 03 26    13 55 04.6 -15 59 24   0.6659  1.6191   152.9    16.3    20.6
    ...
    2012 04 01    13 40 33.8 -16 50 09   0.5813  1.5608   161.2    11.9    20.1
    ...
    2012 04 09    13 12 07.8 -17 55 29   0.4828  1.4791   169.7     7.0    19.4
    ...
    2012 04 24    11 42 58.5 -18 41 41   0.3557  1.3128   144.9    26.2    19.1
    
    A. U. Tomatic                (C) Copyright 2012 MPC           M.P.E.C. 2012-F74
    

    Read MPEC 2012-F73 Read MPEC 2012-F75


    MPEC number:

    Enter an MPEC number in one of the following forms:

    • 1997-B01 (the full form)
    • J97B01 (the packed version of the full form)
    • B01 (the abbreviated form)